Hourly Data Report for July 20, 2011

HALIFAX STANFIELD INT'L A
NOVA SCOTIA

44°52'48.060" N
63°30'00.050" W
145.40 m
8202250
71395
YHZ

Download Data

Hourly Data (July 2011)
Hourly Data Report for July 20, 2011
TIME
LST
Temp Definition
°C
Dew Point Definition
°C
Rel Hum Definition
%
Precip. Amount Definition
mm

Wind Dir Definition
10's deg

Wind Spd Definition
km/h
Visibility Definition
km
Stn Press Definition
kPa
Hmdx Definition


Wind Chill Definition


Weather Definition


00:00 18.8 12.2 65   31 13 24.1 99.09     Mainly Clear
01:00 17.6 11.2 66   30 15 24.1 99.14     Mainly Clear
02:00 15.8 10.9 73   29 13 24.1 99.15     Clear
03:00 14.0 10.8 81   29 9 24.1 99.19     Clear
04:00 14.2 10.2 77   31 9 24.1 99.20     Mainly Clear
05:00 16.4 10.5 68   32 9 24.1 99.25     Mainly Clear
06:00 16.5 10.9 69   29 7 24.1 99.31     Mainly Clear
07:00 18.3 12.2 68   23 11 24.1 99.37     Mainly Clear
08:00 20.0 12.4 62   33 13 24.1 99.41     Mainly Clear
09:00 21.2 10.1 49   31 13 24.1 99.42     Mostly Cloudy
10:00 23.0 10.6 45   33 13 24.1 99.44 25   Mostly Cloudy
11:00 23.7 10.5 43   26 13 24.1 99.38 25   Mostly Cloudy
12:00 23.9 8.2 37   25 9 24.1 99.35     Mainly Clear
13:00 25.6 10.3 38   30 9 24.1 99.27 27   Mainly Clear
14:00 26.6 10.5 36   25 11 24.1 99.22 28   Mainly Clear
15:00 26.6 11.5 39   20 22 24.1 99.15 29   Mainly Clear
16:00 25.6 12.0 43   23 24 24.1 99.15 28   Mostly Cloudy
17:00 24.0 11.9 47   21 43 24.1 99.10 26   Mostly Cloudy
18:00 21.8 9.6 46   21 26 24.1 99.14     Cloudy
19:00 19.9 8.4 47   20 24 24.1 99.06     Cloudy
20:00 18.6 9.3 55   20 30 24.1 99.06     Cloudy
21:00 18.6 10.5 59   21 19 24.1 99.11     Cloudy
22:00 18.8 10.8 60   21 19 24.1 99.12     Cloudy
23:00 18.7 11.1 61   20 17 24.1 99.12     Cloudy

Notes on Data Quality.

Legend

  • E = Estimated
  • M = Missing
  • NA = Not Available*
  • [empty] = Indicates an unobserved value
Date modified: